Time,TemperatureF,DewpointF,PressureIn,WindDirection,WindDirectionDegrees,WindSpeedMPH,WindSpeedGustMPH,Humidity,HourlyPrecipIn,Conditions,Clouds,dailyrainin,SoftwareType,DateUTC
2013-02-12 00:00:00,50.0,25.9,29.81,WNW,293,4.7,8.1,39,0.00,,,0.00,WUHU216HW,2013-02-12 05:00:00,
2013-02-12 00:05:00,49.7,26.3,29.82,West,270,6.0,6.9,40,0.00,,,0.00,WUHU216HW,2013-02-12 05:05:00,
2013-02-12 00:10:00,49.5,26.7,29.82,WSW,248,4.0,7.4,41,0.00,,,0.00,WUHU216HW,2013-02-12 05:10:00,
2013-02-12 00:15:00,49.3,26.6,29.82,WNW,293,4.0,7.4,41,0.00,,,0.00,WUHU216HW,2013-02-12 05:15:00,
2013-02-12 00:20:00,49.3,26.6,29.82,NW,315,3.4,6.9,41,0.00,,,0.00,WUHU216HW,2013-02-12 05:20:00,
2013-02-12 00:25:00,48.8,26.7,29.82,NW,315,8.5,8.5,42,0.00,,,0.00,WUHU216HW,2013-02-12 05:25:00,
2013-02-12 00:30:00,48.6,27.0,29.82,NW,315,4.7,8.5,43,0.00,,,0.00,WUHU216HW,2013-02-12 05:30:00,
2013-02-12 00:35:00,48.6,27.0,29.82,NW,315,7.6,7.6,43,0.00,,,0.00,WUHU216HW,2013-02-12 05:35:00,
2013-02-12 00:40:00,48.4,27.4,29.83,North,0,4.0,8.9,44,0.00,,,0.00,WUHU216HW,2013-02-12 05:40:00,
2013-02-12 00:45:00,48.4,26.8,29.82,WNW,293,4.7,8.9,43,0.00,,,0.00,WUHU216HW,2013-02-12 05:45:00,
2013-02-12 00:51:00,48.1,27.0,29.82,SSE,158,3.4,8.5,44,0.00,,,0.00,WUHU216HW,2013-02-12 05:51:00,
2013-02-12 00:56:00,47.9,26.3,29.83,North,0,7.4,9.8,43,0.00,,,0.00,WUHU216HW,2013-02-12 05:56:00,
2013-02-12 01:01:00,47.9,26.3,29.83,South,180,4.3,9.8,43,0.00,,,0.00,WUHU216HW,2013-02-12 06:01:00,
2013-02-12 01:06:00,47.5,26.0,29.82,WNW,293,12.1,12.1,43,0.00,,,0.00,WUHU216HW,2013-02-12 06:06:00,
2013-02-12 01:11:00,47.2,25.7,29.82,NW,315,11.4,12.1,43,0.00,,,0.00,WUHU216HW,2013-02-12 06:11:00,
2013-02-12 01:16:00,47.3,26.4,29.82,North,0,12.8,12.8,44,0.00,,,0.00,WUHU216HW,2013-02-12 06:16:00,
2013-02-12 01:22:00,47.3,26.4,29.82,WNW,293,8.5,12.8,44,0.00,,,0.00,WUHU216HW,2013-02-12 06:22:00,
2013-02-12 01:27:00,47.3,26.4,29.83,NW,315,6.7,11.4,44,0.00,,,0.00,WUHU216HW,2013-02-12 06:27:00,
2013-02-12 01:32:00,47.2,26.2,29.83,WSW,248,4.0,11.4,44,0.00,,,0.00,WUHU216HW,2013-02-12 06:32:00,
2013-02-12 01:37:00,47.3,26.4,29.83,West,270,6.7,10.5,44,0.00,,,0.00,WUHU216HW,2013-02-12 06:37:00,
2013-02-12 01:42:00,47.2,26.7,29.83,WNW,293,6.0,10.5,45,0.00,,,0.00,WUHU216HW,2013-02-12 06:42:00,
2013-02-12 01:47:00,47.2,26.7,29.83,SSW,203,5.8,10.3,45,0.00,,,0.00,WUHU216HW,2013-02-12 06:47:00,
2013-02-12 01:52:00,47.2,26.7,29.83,WNW,293,4.5,10.1,45,0.00,,,0.00,WUHU216HW,2013-02-12 06:52:00,
2013-02-12 01:57:00,47.2,26.7,29.83,NNW,338,7.8,8.7,45,0.00,,,0.00,WUHU216HW,2013-02-12 06:57:00,
2013-02-12 02:02:00,47.2,26.7,29.83,NW,315,12.8,12.8,45,0.00,,,0.00,WUHU216HW,2013-02-12 07:02:00,
2013-02-12 02:07:00,47.0,26.6,29.83,WSW,248,5.6,12.8,45,0.00,,,0.00,WUHU216HW,2013-02-12 07:07:00,
2013-02-12 02:12:00,47.2,27.3,29.84,WNW,293,6.7,9.6,46,0.00,,,0.00,WUHU216HW,2013-02-12 07:12:00,
2013-02-12 02:17:00,47.0,27.1,29.84,NW,315,6.9,14.3,46,0.00,,,0.00,WUHU216HW,2013-02-12 07:17:00,
2013-02-12 02:22:00,46.8,27.0,29.84,WNW,293,6.5,14.3,46,0.00,,,0.00,WUHU216HW,2013-02-12 07:22:00,
2013-02-12 02:27:00,46.6,26.8,29.84,WSW,248,5.1,9.2,46,0.00,,,0.00,WUHU216HW,2013-02-12 07:27:00,
2013-02-12 02:32:00,46.6,26.8,29.84,NW,315,5.6,7.2,46,0.00,,,0.00,WUHU216HW,2013-02-12 07:32:00,
2013-02-12 02:37:00,46.4,26.6,29.84,NW,315,6.9,7.2,46,0.00,,,0.00,WUHU216HW,2013-02-12 07:37:00,
2013-02-12 02:42:00,46.6,26.8,29.84,WNW,293,4.5,9.8,46,0.00,,,0.00,WUHU216HW,2013-02-12 07:42:00,
2013-02-12 02:47:00,46.4,26.6,29.83,NW,315,6.7,9.8,46,0.00,,,0.00,WUHU216HW,2013-02-12 07:47:00,
2013-02-12 02:52:00,46.4,26.6,29.83,NW,315,7.6,7.6,46,0.00,,,0.00,WUHU216HW,2013-02-12 07:52:00,
2013-02-12 02:57:00,46.4,26.6,29.83,NW,315,6.9,10.1,46,0.00,,,0.00,WUHU216HW,2013-02-12 07:57:00,
2013-02-12 03:02:00,46.4,26.6,29.83,WSW,248,6.0,10.1,46,0.00,,,0.00,WUHU216HW,2013-02-12 08:02:00,
2013-02-12 03:07:00,46.3,25.9,29.82,NNW,338,8.7,9.8,45,0.00,,,0.00,WUHU216HW,2013-02-12 08:07:00,
2013-02-12 03:12:00,46.1,26.3,29.82,WNW,293,6.0,9.8,46,0.00,,,0.00,WUHU216HW,2013-02-12 08:12:00,
2013-02-12 03:17:00,45.7,26.0,29.82,SW,225,5.6,8.5,46,0.00,,,0.00,WUHU216HW,2013-02-12 08:17:00,
2013-02-12 03:22:00,45.7,26.0,29.82,WNW,293,9.2,9.6,46,0.00,,,0.00,WUHU216HW,2013-02-12 08:22:00,
2013-02-12 03:27:00,45.7,26.0,29.82,WNW,293,8.3,9.6,46,0.00,,,0.00,WUHU216HW,2013-02-12 08:27:00,
2013-02-12 03:32:00,45.7,25.5,29.82,West,270,5.4,8.9,45,0.00,,,0.00,WUHU216HW,2013-02-12 08:32:00,
2013-02-12 03:37:00,45.5,25.3,29.82,West,270,5.6,8.9,45,0.00,,,0.00,WUHU216HW,2013-02-12 08:37:00,
2013-02-12 03:42:00,45.4,25.1,29.82,NNW,338,6.3,8.3,45,0.00,,,0.00,WUHU216HW,2013-02-12 08:42:00,
2013-02-12 03:47:00,45.4,25.1,29.82,NW,315,6.3,10.5,45,0.00,,,0.00,WUHU216HW,2013-02-12 08:47:00,
2013-02-12 03:52:00,45.4,25.1,29.82,WNW,293,6.3,10.5,45,0.00,,,0.00,WUHU216HW,2013-02-12 08:52:00,
2013-02-12 03:57:00,45.0,24.9,29.82,NW,315,3.4,9.8,45,0.00,,,0.00,WUHU216HW,2013-02-12 08:57:00,
2013-02-12 04:02:00,45.0,24.9,29.83,NNW,338,4.7,10.1,45,0.00,,,0.00,WUHU216HW,2013-02-12 09:02:00,
2013-02-12 04:07:00,45.0,24.9,29.83,WNW,293,2.9,10.1,45,0.00,,,0.00,WUHU216HW,2013-02-12 09:07:00,
2013-02-12 04:12:00,45.0,24.9,29.83,NNW,338,7.6,9.4,45,0.00,,,0.00,WUHU216HW,2013-02-12 09:12:00,
2013-02-12 04:17:00,45.0,24.9,29.84,NW,315,4.0,9.4,45,0.00,,,0.00,WUHU216HW,2013-02-12 09:17:00,
2013-02-12 04:22:00,44.8,24.7,29.84,West,270,3.8,6.7,45,0.00,,,0.00,WUHU216HW,2013-02-12 09:22:00,
2013-02-12 04:27:00,44.6,24.5,29.84,NW,315,5.4,6.7,45,0.00,,,0.00,WUHU216HW,2013-02-12 09:27:00,
2013-02-12 04:32:00,44.6,24.5,29.84,WNW,293,8.1,8.7,45,0.00,,,0.00,WUHU216HW,2013-02-12 09:32:00,
2013-02-12 04:37:00,44.8,24.7,29.84,North,0,4.3,8.7,45,0.00,,,0.00,WUHU216HW,2013-02-12 09:37:00,
2013-02-12 04:42:00,44.6,24.5,29.84,West,270,5.8,7.6,45,0.00,,,0.00,WUHU216HW,2013-02-12 09:42:00,
2013-02-12 04:47:00,44.6,24.5,29.84,NW,315,4.3,10.1,45,0.00,,,0.00,WUHU216HW,2013-02-12 09:47:00,
2013-02-12 04:52:00,44.3,24.1,29.84,SW,225,3.1,10.1,45,0.00,,,0.00,WUHU216HW,2013-02-12 09:52:00,
2013-02-12 04:57:00,44.3,24.1,29.85,NW,315,5.6,10.3,45,0.00,,,0.00,WUHU216HW,2013-02-12 09:57:00,
2013-02-12 05:02:00,44.3,24.1,29.85,WNW,293,6.3,10.3,45,0.00,,,0.00,WUHU216HW,2013-02-12 10:02:00,
2013-02-12 05:07:00,44.3,24.1,29.85,West,270,2.2,6.3,45,0.00,,,0.00,WUHU216HW,2013-02-12 10:07:00,
2013-02-12 05:12:00,43.9,23.9,29.85,WNW,293,2.7,4.0,45,0.00,,,0.00,WUHU216HW,2013-02-12 10:12:00,
2013-02-12 05:17:00,43.7,24.2,29.85,WNW,293,1.8,2.7,46,0.00,,,0.00,WUHU216HW,2013-02-12 10:17:00,
2013-02-12 05:22:00,43.6,24.6,29.85,West,270,3.4,3.8,47,0.00,,,0.00,WUHU216HW,2013-02-12 10:22:00,
2013-02-12 05:27:00,43.6,24.0,29.86,NW,315,1.3,6.9,46,0.00,,,0.00,WUHU216HW,2013-02-12 10:27:00,
2013-02-12 05:32:00,43.6,24.0,29.86,NW,315,5.6,7.2,46,0.00,,,0.00,WUHU216HW,2013-02-12 10:32:00,
2013-02-12 05:37:00,43.6,24.0,29.86,NW,315,1.8,7.2,46,0.00,,,0.00,WUHU216HW,2013-02-12 10:37:00,
2013-02-12 05:42:00,43.6,24.0,29.86,WNW,293,2.9,4.7,46,0.00,,,0.00,WUHU216HW,2013-02-12 10:42:00,
2013-02-12 05:47:00,43.2,23.8,29.86,NW,315,9.2,9.2,46,0.00,,,0.00,WUHU216HW,2013-02-12 10:47:00,
2013-02-12 05:52:00,43.2,23.8,29.86,West,270,3.6,9.2,46,0.00,,,0.00,WUHU216HW,2013-02-12 10:52:00,
2013-02-12 05:57:00,43.4,24.4,29.86,WSW,248,4.9,7.2,47,0.00,,,0.00,WUHU216HW,2013-02-12 10:57:00,
2013-02-12 06:02:00,43.0,24.1,29.87,NW,315,1.3,7.2,47,0.00,,,0.00,WUHU216HW,2013-02-12 11:02:00,
2013-02-12 06:07:00,43.0,24.1,29.87,WNW,293,4.5,7.6,47,0.00,,,0.00,WUHU216HW,2013-02-12 11:07:00,
2013-02-12 06:12:00,43.2,24.3,29.87,NW,315,2.5,7.6,47,0.00,,,0.00,WUHU216HW,2013-02-12 11:12:00,
2013-02-12 06:17:00,42.8,23.9,29.87,NW,315,3.1,5.8,47,0.00,,,0.00,WUHU216HW,2013-02-12 11:17:00,
2013-02-12 06:22:00,42.8,23.9,29.87,NW,315,1.8,4.0,47,0.00,,,0.00,WUHU216HW,2013-02-12 11:22:00,
2013-02-12 06:27:00,42.7,23.8,29.87,ENE,68,1.8,4.7,47,0.00,,,0.00,WUHU216HW,2013-02-12 11:27:00,
2013-02-12 06:32:00,42.8,24.5,29.87,NNW,338,1.3,5.4,48,0.00,,,0.00,WUHU216HW,2013-02-12 11:32:00,
2013-02-12 06:37:00,42.7,24.3,29.87,NNW,338,1.8,5.4,48,0.00,,,0.00,WUHU216HW,2013-02-12 11:37:00,
2013-02-12 06:42:00,42.5,24.1,29.87,NW,315,1.8,3.1,48,0.00,,,0.00,WUHU216HW,2013-02-12 11:42:00,
2013-02-12 06:47:00,42.3,23.9,29.87,WNW,293,2.5,2.9,48,0.00,,,0.00,WUHU216HW,2013-02-12 11:47:00,
2013-02-12 06:52:00,42.3,23.9,29.87,WNW,293,3.1,4.7,48,0.00,,,0.00,WUHU216HW,2013-02-12 11:52:00,
2013-02-12 06:57:00,42.3,24.5,29.87,NW,315,3.4,4.7,49,0.00,,,0.00,WUHU216HW,2013-02-12 11:57:00,
2013-02-12 07:02:00,42.5,24.1,29.87,NW,315,4.0,5.6,48,0.00,,,0.00,WUHU216HW,2013-02-12 12:02:00,
2013-02-12 07:07:00,42.5,23.6,29.88,NW,315,3.1,5.6,47,0.00,,,0.00,WUHU216HW,2013-02-12 12:07:00,
2013-02-12 07:12:00,42.5,24.1,29.88,West,270,3.4,5.6,48,0.00,,,0.00,WUHU216HW,2013-02-12 12:12:00,
2013-02-12 07:17:00,42.5,24.1,29.88,NNW,338,1.6,5.6,48,0.00,,,0.00,WUHU216HW,2013-02-12 12:17:00,
2013-02-12 07:22:00,42.3,23.9,29.89,NW,315,2.9,4.3,48,0.00,,,0.00,WUHU216HW,2013-02-12 12:22:00,
2013-02-12 07:27:00,42.1,23.8,29.88,WNW,293,0.9,3.8,48,0.00,,,0.00,WUHU216HW,2013-02-12 12:27:00,
2013-02-12 07:32:00,42.1,23.8,29.88,WNW,293,2.0,3.1,48,0.00,,,0.00,WUHU216HW,2013-02-12 12:32:00,
2013-02-12 07:37:00,42.1,23.2,29.88,WSW,248,1.1,4.0,47,0.00,,,0.00,WUHU216HW,2013-02-12 12:37:00,
2013-02-12 07:42:00,42.5,23.0,29.88,WNW,293,4.7,6.3,46,0.00,,,0.00,WUHU216HW,2013-02-12 12:42:00,
2013-02-12 07:47:00,42.8,22.9,29.89,NW,315,2.7,6.3,45,0.00,,,0.00,WUHU216HW,2013-02-12 12:47:00,
2013-02-12 07:52:00,42.8,22.3,29.89,NW,315,2.5,5.1,44,0.00,,,0.00,WUHU216HW,2013-02-12 12:52:00,
2013-02-12 07:57:00,43.2,22.7,29.89,WNW,293,2.7,5.8,44,0.00,,,0.00,WUHU216HW,2013-02-12 12:57:00,
2013-02-12 08:02:00,43.2,22.7,29.89,WSW,248,2.9,5.8,44,0.00,,,0.00,WUHU216HW,2013-02-12 13:02:00,
2013-02-12 08:07:00,43.4,22.8,29.89,NW,315,2.2,6.3,44,0.00,,,0.00,WUHU216HW,2013-02-12 13:07:00,
2013-02-12 08:12:00,43.7,22.6,29.89,NW,315,6.3,6.3,43,0.00,,,0.00,WUHU216HW,2013-02-12 13:12:00,
2013-02-12 08:17:00,44.1,23.0,29.89,North,0,3.6,6.3,43,0.00,,,0.00,WUHU216HW,2013-02-12 13:17:00,
2013-02-12 08:22:00,44.3,22.5,29.90,NNW,338,6.5,6.5,42,0.00,,,0.00,WUHU216HW,2013-02-12 13:22:00,
2013-02-12 08:28:00,44.3,22.5,29.90,WNW,293,2.0,6.5,42,0.00,,,0.00,WUHU216HW,2013-02-12 13:28:00,
2013-02-12 08:33:00,44.6,22.3,29.90,WNW,293,4.7,6.3,41,0.00,,,0.00,WUHU216HW,2013-02-12 13:33:00,
2013-02-12 08:38:00,44.8,22.5,29.90,West,270,2.9,5.6,41,0.00,,,0.00,WUHU216HW,2013-02-12 13:38:00,
2013-02-12 08:43:00,45.0,22.7,29.90,NW,315,4.0,5.6,41,0.00,,,0.00,WUHU216HW,2013-02-12 13:43:00,
2013-02-12 08:48:00,45.2,22.2,29.90,WNW,293,7.4,7.4,40,0.00,,,0.00,WUHU216HW,2013-02-12 13:48:00,
2013-02-12 08:53:00,45.4,22.4,29.90,West,270,4.7,7.4,40,0.00,,,0.00,WUHU216HW,2013-02-12 13:53:00,
2013-02-12 08:58:00,45.5,23.1,29.91,North,0,2.7,5.8,41,0.00,,,0.00,WUHU216HW,2013-02-12 13:58:00,
2013-02-12 09:03:00,45.7,23.3,29.91,WNW,293,2.7,5.4,41,0.00,,,0.00,WUHU216HW,2013-02-12 14:03:00,
2013-02-12 09:08:00,45.9,23.0,29.91,WNW,293,6.0,7.2,40,0.00,,,0.00,WUHU216HW,2013-02-12 14:08:00,
2013-02-12 09:13:00,46.1,23.0,29.91,NW,315,4.7,7.2,40,0.00,,,0.00,WUHU216HW,2013-02-12 14:13:00,
2013-02-12 09:18:00,46.3,23.2,29.92,NNE,23,1.8,6.3,40,0.00,,,0.00,WUHU216HW,2013-02-12 14:18:00,
2013-02-12 09:23:00,46.6,23.6,29.92,NNW,338,4.0,4.7,40,0.00,,,0.00,WUHU216HW,2013-02-12 14:23:00,
2013-02-12 09:28:00,46.8,24.3,29.92,North,0,5.1,5.1,41,0.00,,,0.00,WUHU216HW,2013-02-12 14:28:00,
2013-02-12 09:33:00,46.8,23.8,29.92,NNW,338,4.7,6.3,40,0.00,,,0.00,WUHU216HW,2013-02-12 14:33:00,
2013-02-12 09:39:00,47.2,24.0,29.93,NNW,338,4.3,6.3,40,0.00,,,0.00,WUHU216HW,2013-02-12 14:39:00,
2013-02-12 09:44:00,47.2,24.0,29.93,NNE,23,2.5,9.2,40,0.00,,,0.00,WUHU216HW,2013-02-12 14:44:00,
2013-02-12 09:49:00,47.5,24.4,29.93,NW,315,4.9,9.2,40,0.00,,,0.00,WUHU216HW,2013-02-12 14:49:00,
2013-02-12 09:54:00,47.5,23.7,29.94,NNW,338,3.4,7.4,39,0.00,,,0.00,WUHU216HW,2013-02-12 14:54:00,
2013-02-12 09:59:00,47.7,24.6,29.94,NW,315,3.1,7.4,40,0.00,,,0.00,WUHU216HW,2013-02-12 14:59:00,
2013-02-12 10:04:00,48.2,25.0,29.94,WNW,293,3.6,6.3,40,0.00,,,0.00,WUHU216HW,2013-02-12 15:04:00,
2013-02-12 10:09:00,48.6,24.7,29.94,NW,315,7.6,7.6,39,0.00,,,0.00,WUHU216HW,2013-02-12 15:09:00,
2013-02-12 10:14:00,48.6,24.7,29.94,WNW,293,7.2,7.6,39,0.00,,,0.00,WUHU216HW,2013-02-12 15:14:00,
2013-02-12 10:20:00,48.6,24.7,29.94,NW,315,5.4,7.2,39,0.00,,,0.00,WUHU216HW,2013-02-12 15:20:00,
2013-02-12 10:25:00,49.1,25.1,29.94,WNW,293,6.5,6.5,39,0.00,,,0.00,WUHU216HW,2013-02-12 15:25:00,
2013-02-12 10:30:00,49.0,25.0,29.94,WNW,293,1.1,7.6,39,0.00,,,0.00,WUHU216HW,2013-02-12 15:30:00,
2013-02-12 10:35:00,49.5,24.9,29.94,North,0,4.9,7.6,38,0.00,,,0.00,WUHU216HW,2013-02-12 15:35:00,
2013-02-12 10:40:00,50.0,25.3,29.94,North,0,2.2,4.9,38,0.00,,,0.00,WUHU216HW,2013-02-12 15:40:00,
2013-02-12 10:45:00,50.4,25.6,29.94,SSE,158,2.0,5.1,38,0.00,,,0.00,WUHU216HW,2013-02-12 15:45:00,
2013-02-12 10:50:00,50.8,25.9,29.93,NNW,338,3.8,5.8,38,0.00,,,0.00,WUHU216HW,2013-02-12 15:50:00,
2013-02-12 10:55:00,51.1,26.3,29.93,West,270,2.9,6.5,38,0.00,,,0.00,WUHU216HW,2013-02-12 15:55:00,
2013-02-12 11:00:00,51.1,26.3,29.93,WNW,293,3.8,6.5,38,0.00,,,0.00,WUHU216HW,2013-02-12 16:00:00,
2013-02-12 11:05:00,51.3,25.8,29.93,WNW,293,4.7,5.1,37,0.00,,,0.00,WUHU216HW,2013-02-12 16:05:00,
2013-02-12 11:10:00,51.5,26.6,29.94,WNW,293,3.1,5.1,38,0.00,,,0.00,WUHU216HW,2013-02-12 16:10:00,
2013-02-12 11:15:00,51.8,26.9,29.94,NE,45,0.4,5.4,38,0.00,,,0.00,WUHU216HW,2013-02-12 16:15:00,
2013-02-12 11:20:00,52.2,26.6,29.93,ENE,68,2.5,6.5,37,0.00,,,0.00,WUHU216HW,2013-02-12 16:20:00,
2013-02-12 11:25:00,52.4,25.3,29.93,NNW,338,6.0,6.5,35,0.00,,,0.00,WUHU216HW,2013-02-12 16:25:00,
2013-02-12 11:30:00,52.2,25.8,29.93,North,0,5.1,6.9,36,0.00,,,0.00,WUHU216HW,2013-02-12 16:30:00,
2013-02-12 11:35:00,51.8,25.6,29.93,NW,315,3.4,6.9,36,0.00,,,0.00,WUHU216HW,2013-02-12 16:35:00,
2013-02-12 11:40:00,52.2,25.8,29.93,North,0,0.9,5.4,36,0.00,,,0.00,WUHU216HW,2013-02-12 16:40:00,
2013-02-12 11:45:00,52.4,26.0,29.93,NNW,338,3.8,4.9,36,0.00,,,0.00,WUHU216HW,2013-02-12 16:45:00,
2013-02-12 11:50:00,52.9,26.5,29.93,NW,315,4.7,6.0,36,0.00,,,0.00,WUHU216HW,2013-02-12 16:50:00,
2013-02-12 11:55:00,53.3,26.1,29.93,North,0,2.5,6.5,35,0.00,,,0.00,WUHU216HW,2013-02-12 16:55:00,
2013-02-12 12:00:00,53.3,25.5,29.93,NNE,23,4.5,6.5,34,0.00,,,0.00,WUHU216HW,2013-02-12 17:00:00,
2013-02-12 12:05:00,53.5,27.0,29.93,North,0,2.5,6.5,36,0.00,,,0.00,WUHU216HW,2013-02-12 17:05:00,
2013-02-12 12:10:00,54.0,27.5,29.93,NNW,338,4.0,6.5,36,0.00,,,0.00,WUHU216HW,2013-02-12 17:10:00,
2013-02-12 12:15:00,54.0,26.1,29.93,NNW,338,2.5,5.8,34,0.00,,,0.00,WUHU216HW,2013-02-12 17:15:00,
2013-02-12 12:20:00,54.4,27.7,29.93,NW,315,1.8,5.1,36,0.00,,,0.00,WUHU216HW,2013-02-12 17:20:00,
2013-02-12 12:25:00,54.5,27.9,29.93,NNW,338,0.4,5.4,36,0.00,,,0.00,WUHU216HW,2013-02-12 17:25:00,
2013-02-12 12:30:00,55.3,27.2,29.92,North,0,3.4,5.4,34,0.00,,,0.00,WUHU216HW,2013-02-12 17:30:00,
2013-02-12 12:35:00,55.4,29.4,29.92,NE,45,4.3,6.7,37,0.00,,,0.00,WUHU216HW,2013-02-12 17:35:00,
2013-02-12 12:40:00,56.5,28.3,29.92,NNW,338,3.1,6.9,34,0.00,,,0.00,WUHU216HW,2013-02-12 17:40:00,
2013-02-12 12:45:00,55.8,26.9,29.92,West,270,3.1,6.9,33,0.00,,,0.00,WUHU216HW,2013-02-12 17:45:00,
2013-02-12 12:50:00,55.8,29.0,29.92,North,0,4.0,5.4,36,0.00,,,0.00,WUHU216HW,2013-02-12 17:50:00,
2013-02-12 12:55:00,56.5,29.7,29.91,North,0,2.7,8.1,36,0.00,,,0.00,WUHU216HW,2013-02-12 17:55:00,
2013-02-12 13:00:00,57.1,28.7,29.91,NNE,23,6.7,8.1,34,0.00,,,0.00,WUHU216HW,2013-02-12 18:00:00,
2013-02-12 13:05:00,56.5,27.5,29.90,NW,315,3.8,7.6,33,0.00,,,0.00,WUHU216HW,2013-02-12 18:05:00,
2013-02-12 13:10:00,56.3,27.4,29.89,North,0,1.6,7.6,33,0.00,,,0.00,WUHU216HW,2013-02-12 18:10:00,
2013-02-12 13:15:00,57.2,29.6,29.89,NNW,338,4.3,7.6,35,0.00,,,0.00,WUHU216HW,2013-02-12 18:15:00,
2013-02-12 13:20:00,58.1,29.7,29.88,NW,315,5.8,7.6,34,0.00,,,0.00,WUHU216HW,2013-02-12 18:20:00,
2013-02-12 13:25:00,57.2,30.3,29.88,NW,315,4.5,5.8,36,0.00,,,0.00,WUHU216HW,2013-02-12 18:25:00,
2013-02-12 13:30:00,57.4,29.1,29.88,North,0,2.5,4.9,34,0.00,,,0.00,WUHU216HW,2013-02-12 18:30:00,
2013-02-12 13:35:00,57.8,29.4,29.89,NE,45,5.6,5.6,34,0.00,,,0.00,WUHU216HW,2013-02-12 18:35:00,
2013-02-12 13:40:00,58.3,30.6,29.88,North,0,0.0,6.3,35,0.00,,,0.00,WUHU216HW,2013-02-12 18:40:00,
2013-02-12 13:45:00,58.7,28.8,29.89,North,0,0.0,6.3,32,0.00,,,0.00,WUHU216HW,2013-02-12 18:45:00,
2013-02-12 13:50:00,57.6,27.8,29.89,North,0,0.0,0.0,32,0.00,,,0.00,WUHU216HW,2013-02-12 18:50:00,
2013-02-12 13:55:00,57.2,28.2,29.88,North,0,0.0,0.0,33,0.00,,,0.00,WUHU216HW,2013-02-12 18:55:00,
2013-02-12 14:00:00,58.0,30.2,29.88,North,0,0.0,0.0,35,0.00,,,0.00,WUHU216HW,2013-02-12 19:00:00,
2013-02-12 14:05:00,58.7,28.1,29.87,North,0,0.0,0.0,31,0.00,,,0.00,WUHU216HW,2013-02-12 19:05:00,
2013-02-12 14:10:00,58.0,28.2,29.86,North,0,0.0,0.0,32,0.00,,,0.00,WUHU216HW,2013-02-12 19:10:00,
2013-02-12 14:15:00,58.3,29.2,29.84,North,0,0.0,0.0,33,0.00,,,0.00,WUHU216HW,2013-02-12 19:15:00,
2013-02-12 14:20:00,58.9,30.3,29.83,North,0,0.0,0.0,34,0.00,,,0.00,WUHU216HW,2013-02-12 19:20:00,
2013-02-12 14:25:00,59.4,30.2,29.82,North,0,0.0,0.0,33,0.00,,,0.00,WUHU216HW,2013-02-12 19:25:00,
2013-02-12 14:30:00,59.2,30.0,29.80,North,0,0.0,0.0,33,0.00,,,0.00,WUHU216HW,2013-02-12 19:30:00,
2013-02-12 14:35:00,59.0,29.2,29.81,North,0,0.0,0.0,32,0.00,,,0.00,WUHU216HW,2013-02-12 19:35:00,
2013-02-12 14:40:00,58.7,30.3,29.81,North,0,0.0,0.0,34,0.00,,,0.00,WUHU216HW,2013-02-12 19:40:00,
2013-02-12 14:45:00,59.2,30.7,29.80,North,0,0.0,0.0,34,0.00,,,0.00,WUHU216HW,2013-02-12 19:45:00,
2013-02-12 14:50:00,59.6,30.2,29.82,North,0,0.0,0.0,33,0.00,,,0.00,WUHU216HW,2013-02-12 19:50:00,
2013-02-12 14:56:00,59.8,30.4,29.82,North,0,0.0,0.0,33,0.00,,,0.00,WUHU216HW,2013-02-12 19:56:00,
2013-02-12 15:01:00,59.8,29.7,29.83,NE,45,3.1,4.0,32,0.00,,,0.00,WUHU216HW,2013-02-12 20:01:00,
2013-02-12 15:06:00,59.9,28.4,29.85,North,0,0.0,4.0,30,0.00,,,0.00,WUHU216HW,2013-02-12 20:06:00,
2013-02-12 15:11:00,60.1,30.7,29.86,North,0,0.0,3.1,33,0.00,,,0.00,WUHU216HW,2013-02-12 20:11:00,
2013-02-12 15:16:00,60.7,29.0,29.87,North,0,0.0,0.0,30,0.00,,,0.00,WUHU216HW,2013-02-12 20:16:00,
2013-02-12 15:21:00,60.1,29.4,29.88,North,0,0.0,0.0,31,0.00,,,0.00,WUHU216HW,2013-02-12 20:21:00,
2013-02-12 15:26:00,60.5,29.6,29.88,North,0,0.0,0.0,31,0.00,,,0.00,WUHU216HW,2013-02-12 20:26:00,
2013-02-12 15:31:00,61.0,29.4,29.89,North,0,0.0,0.0,30,0.00,,,0.00,WUHU216HW,2013-02-12 20:31:00,
2013-02-12 15:36:00,60.7,27.1,29.89,North,0,0.0,0.0,28,0.00,,,0.00,WUHU216HW,2013-02-12 20:36:00,
2013-02-12 15:41:00,60.1,27.6,29.88,North,0,0.0,0.0,29,0.00,,,0.00,WUHU216HW,2013-02-12 20:41:00,
2013-02-12 15:46:00,60.1,28.6,29.87,North,0,0.0,0.0,30,0.00,,,0.00,WUHU216HW,2013-02-12 20:46:00,
2013-02-12 15:51:00,59.8,27.4,29.87,North,0,0.0,0.0,29,0.00,,,0.00,WUHU216HW,2013-02-12 20:51:00,
2013-02-12 15:56:00,59.6,26.2,29.87,North,0,0.0,0.0,28,0.00,,,0.00,WUHU216HW,2013-02-12 20:56:00,
2013-02-12 16:01:00,59.0,26.7,29.87,North,0,0.0,0.0,29,0.00,,,0.00,WUHU216HW,2013-02-12 21:01:00,
2013-02-12 16:06:00,58.7,24.5,29.87,North,0,0.0,0.0,27,0.00,,,0.00,WUHU216HW,2013-02-12 21:06:00,
2013-02-12 16:11:00,58.3,24.2,29.87,North,0,0.0,0.0,27,0.00,,,0.00,WUHU216HW,2013-02-12 21:11:00,
2013-02-12 16:16:00,58.3,26.1,29.87,North,0,0.0,0.0,29,0.00,,,0.00,WUHU216HW,2013-02-12 21:16:00,
2013-02-12 16:21:00,58.9,27.5,29.87,East,90,2.9,2.9,30,0.00,,,0.00,WUHU216HW,2013-02-12 21:21:00,
2013-02-12 16:26:00,59.2,28.5,29.87,ENE,68,3.1,4.7,31,0.00,,,0.00,WUHU216HW,2013-02-12 21:26:00,
2013-02-12 16:31:00,58.9,29.0,29.86,SE,135,3.6,4.7,32,0.00,,,0.00,WUHU216HW,2013-02-12 21:31:00,
2013-02-12 16:36:00,58.7,28.8,29.86,North,0,0.0,4.5,32,0.00,,,0.00,WUHU216HW,2013-02-12 21:36:00,
2013-02-12 16:41:00,58.1,28.4,29.87,North,0,0.0,3.6,32,0.00,,,0.00,WUHU216HW,2013-02-12 21:41:00,
2013-02-12 16:46:00,57.4,28.4,29.87,North,0,0.0,0.0,33,0.00,,,0.00,WUHU216HW,2013-02-12 21:46:00,
2013-02-12 16:51:00,57.2,28.2,29.87,North,0,0.0,0.0,33,0.00,,,0.00,WUHU216HW,2013-02-12 21:51:00,
2013-02-12 16:56:00,57.1,28.1,29.88,North,0,0.0,0.0,33,0.00,,,0.00,WUHU216HW,2013-02-12 21:56:00,
2013-02-12 17:01:00,56.5,27.5,29.88,North,0,0.0,0.0,33,0.00,,,0.00,WUHU216HW,2013-02-12 22:01:00,
2013-02-12 17:06:00,55.8,26.9,29.88,North,0,0.0,0.0,33,0.00,,,0.00,WUHU216HW,2013-02-12 22:06:00,
2013-02-12 17:11:00,55.3,27.2,29.88,North,0,0.0,0.0,34,0.00,,,0.00,WUHU216HW,2013-02-12 22:11:00,
2013-02-12 17:16:00,55.1,27.0,29.88,North,0,0.0,0.0,34,0.00,,,0.00,WUHU216HW,2013-02-12 22:16:00,
2013-02-12 17:21:00,54.5,25.8,29.89,North,0,0.0,0.0,33,0.00,,,0.00,WUHU216HW,2013-02-12 22:21:00,
2013-02-12 17:26:00,54.0,26.1,29.89,North,0,0.0,0.0,34,0.00,,,0.00,WUHU216HW,2013-02-12 22:26:00,
2013-02-12 17:31:00,53.6,25.7,29.90,North,0,0.0,0.0,34,0.00,,,0.00,WUHU216HW,2013-02-12 22:31:00,
2013-02-12 17:36:00,53.6,25.7,29.90,North,0,0.0,0.0,34,0.00,,,0.00,WUHU216HW,2013-02-12 22:36:00,
2013-02-12 17:41:00,53.3,26.8,29.90,North,0,0.0,0.0,36,0.00,,,0.00,WUHU216HW,2013-02-12 22:41:00,
2013-02-12 17:46:00,52.9,26.5,29.90,North,0,0.0,0.0,36,0.00,,,0.00,WUHU216HW,2013-02-12 22:46:00,
2013-02-12 17:51:00,52.4,26.0,29.90,North,0,0.0,0.0,36,0.00,,,0.00,WUHU216HW,2013-02-12 22:51:00,
2013-02-12 17:56:00,52.0,26.4,29.89,SE,135,1.1,1.8,37,0.00,,,0.00,WUHU216HW,2013-02-12 22:56:00,
2013-02-12 18:01:00,51.7,26.7,29.89,SE,135,0.7,1.8,38,0.00,,,0.00,WUHU216HW,2013-02-12 23:01:00,
2013-02-12 18:06:00,50.6,26.5,29.89,SE,135,0.4,0.9,39,0.00,,,0.00,WUHU216HW,2013-02-12 23:06:00,
2013-02-12 18:11:00,50.0,25.9,29.89,ENE,68,0.0,0.7,39,0.00,,,0.00,WUHU216HW,2013-02-12 23:11:00,
2013-02-12 18:16:00,49.7,24.9,29.90,North,0,0.4,1.3,38,0.00,,,0.00,WUHU216HW,2013-02-12 23:16:00,
2013-02-12 18:21:00,49.1,25.1,29.90,NNE,23,2.2,2.5,39,0.00,,,0.00,WUHU216HW,2013-02-12 23:21:00,
2013-02-12 18:26:00,48.8,24.9,29.91,North,0,0.7,3.4,39,0.00,,,0.00,WUHU216HW,2013-02-12 23:26:00,
2013-02-12 18:31:00,48.8,24.9,29.91,NNE,23,0.9,3.4,39,0.00,,,0.00,WUHU216HW,2013-02-12 23:31:00,
2013-02-12 18:36:00,48.8,24.1,29.91,WSW,248,0.0,2.0,38,0.00,,,0.00,WUHU216HW,2013-02-12 23:36:00,
2013-02-12 18:41:00,49.0,24.3,29.92,SSE,158,0.2,1.6,38,0.00,,,0.00,WUHU216HW,2013-02-12 23:41:00,
2013-02-12 18:46:00,48.6,24.7,29.91,SSE,158,0.4,1.6,39,0.00,,,0.00,WUHU216HW,2013-02-12 23:46:00,
2013-02-12 18:51:00,48.4,23.9,29.91,WNW,293,0.9,1.6,38,0.00,,,0.00,WUHU216HW,2013-02-12 23:51:00,
2013-02-12 18:56:00,48.6,24.0,29.91,NNE,23,0.4,0.9,38,0.00,,,0.00,WUHU216HW,2013-02-12 23:56:00,
2013-02-12 19:01:00,48.4,23.9,29.91,ENE,68,0.7,1.8,38,0.00,,,0.00,WUHU216HW,2013-02-13 00:01:00,
2013-02-12 19:06:00,48.2,23.7,29.91,WNW,293,0.4,1.8,38,0.00,,,0.00,WUHU216HW,2013-02-13 00:06:00,
2013-02-12 19:11:00,47.9,23.4,29.91,West,270,1.6,1.8,38,0.00,,,0.00,WUHU216HW,2013-02-13 00:11:00,
2013-02-12 19:16:00,48.2,22.3,29.90,NW,315,1.8,3.1,36,0.00,,,0.00,WUHU216HW,2013-02-13 00:16:00,
2013-02-12 19:22:00,48.8,22.9,29.90,NW,315,2.5,3.4,36,0.00,,,0.00,WUHU216HW,2013-02-13 00:22:00,
2013-02-12 19:27:00,49.0,22.3,29.89,NW,315,3.1,3.1,35,0.00,,,0.00,WUHU216HW,2013-02-13 00:27:00,
2013-02-12 19:32:00,49.1,21.8,29.89,NW,315,2.2,3.1,34,0.00,,,0.00,WUHU216HW,2013-02-13 00:32:00,
2013-02-12 19:37:00,49.1,21.8,29.89,NNW,338,1.8,3.6,34,0.00,,,0.00,WUHU216HW,2013-02-13 00:37:00,
2013-02-12 19:42:00,49.0,23.0,29.89,North,0,1.3,5.1,36,0.00,,,0.00,WUHU216HW,2013-02-13 00:42:00,
2013-02-12 19:47:00,48.8,22.9,29.89,North,0,2.5,5.1,36,0.00,,,0.00,WUHU216HW,2013-02-13 00:47:00,
2013-02-12 19:52:00,48.4,22.5,29.88,North,0,2.7,2.7,36,0.00,,,0.00,WUHU216HW,2013-02-13 00:52:00,
2013-02-12 19:57:00,48.2,22.3,29.88,NNW,338,1.8,3.6,36,0.00,,,0.00,WUHU216HW,2013-02-13 00:57:00,
2013-02-12 20:02:00,48.1,22.9,29.88,NE,45,1.6,3.6,37,0.00,,,0.00,WUHU216HW,2013-02-13 01:02:00,
2013-02-12 20:07:00,47.7,22.5,29.88,ENE,68,1.8,3.4,37,0.00,,,0.00,WUHU216HW,2013-02-13 01:07:00,
2013-02-12 20:12:00,47.2,22.7,29.88,ENE,68,1.1,1.8,38,0.00,,,0.00,WUHU216HW,2013-02-13 01:12:00,
2013-02-12 20:17:00,46.8,21.7,29.88,ENE,68,1.1,1.6,37,0.00,,,0.00,WUHU216HW,2013-02-13 01:17:00,
2013-02-12 20:22:00,46.4,21.4,29.88,NNE,23,1.6,1.6,37,0.00,,,0.00,WUHU216HW,2013-02-13 01:22:00,
2013-02-12 20:27:00,45.9,21.6,29.88,North,0,1.6,2.0,38,0.00,,,0.00,WUHU216HW,2013-02-13 01:27:00,
2013-02-12 20:32:00,45.5,21.2,29.88,North,0,1.1,2.0,38,0.00,,,0.00,WUHU216HW,2013-02-13 01:32:00,
2013-02-12 20:37:00,45.2,21.6,29.87,North,0,2.0,2.0,39,0.00,,,0.00,WUHU216HW,2013-02-13 01:37:00,
2013-02-12 20:42:00,45.0,21.4,29.87,NNE,23,1.3,2.0,39,0.00,,,0.00,WUHU216HW,2013-02-13 01:42:00,
2013-02-12 20:47:00,44.8,21.2,29.87,NE,45,0.7,1.8,39,0.00,,,0.00,WUHU216HW,2013-02-13 01:47:00,
2013-02-12 20:52:00,44.6,21.2,29.89,NE,45,0.7,1.8,39,0.00,,,0.00,WUHU216HW,2013-02-13 01:52:00,
2013-02-12 20:57:00,44.3,21.4,29.89,NE,45,1.1,1.1,40,0.00,,,0.00,WUHU216HW,2013-02-13 01:57:00,
2013-02-12 21:02:00,43.9,21.7,29.89,North,0,0.4,1.1,41,0.00,,,0.00,WUHU216HW,2013-02-13 02:02:00,
2013-02-12 21:07:00,42.8,21.8,29.89,North,0,1.1,1.1,43,0.00,,,0.00,WUHU216HW,2013-02-13 02:07:00,
2013-02-12 21:12:00,42.1,22.7,29.89,NNW,338,0.7,1.1,46,0.00,,,0.00,WUHU216HW,2013-02-13 02:12:00,
2013-02-12 21:17:00,41.4,23.0,29.89,NNW,338,0.7,1.1,48,0.00,,,0.00,WUHU216HW,2013-02-13 02:17:00,
2013-02-12 21:22:00,41.4,23.6,29.89,NNW,338,1.1,1.1,49,0.00,,,0.00,WUHU216HW,2013-02-13 02:22:00,
2013-02-12 21:27:00,41.0,23.2,29.89,NNW,338,1.8,1.8,49,0.00,,,0.00,WUHU216HW,2013-02-13 02:27:00,
2013-02-12 21:32:00,41.4,23.6,29.89,NW,315,1.6,1.8,49,0.00,,,0.00,WUHU216HW,2013-02-13 02:32:00,
2013-02-12 21:37:00,42.1,23.2,29.89,NNW,338,1.1,1.8,47,0.00,,,0.00,WUHU216HW,2013-02-13 02:37:00,
2013-02-12 21:42:00,42.3,22.9,29.90,NW,315,1.3,1.6,46,0.00,,,0.00,WUHU216HW,2013-02-13 02:42:00,
2013-02-12 21:47:00,42.1,22.7,29.90,NW,315,0.7,1.3,46,0.00,,,0.00,WUHU216HW,2013-02-13 02:47:00,
2013-02-12 21:52:00,41.8,22.9,29.90,NW,315,1.3,1.3,47,0.00,,,0.00,WUHU216HW,2013-02-13 02:52:00,
2013-02-12 21:57:00,41.4,23.6,29.90,NNW,338,1.3,1.3,49,0.00,,,0.00,WUHU216HW,2013-02-13 02:57:00,
2013-02-12 22:02:00,41.0,23.2,29.89,NNW,338,1.1,1.3,49,0.00,,,0.00,WUHU216HW,2013-02-13 03:02:00,
2013-02-12 22:07:00,41.2,22.9,29.89,NW,315,0.9,1.3,48,0.00,,,0.00,WUHU216HW,2013-02-13 03:07:00,
2013-02-12 22:12:00,41.4,22.5,29.89,SSE,158,1.8,1.8,47,0.00,,,0.00,WUHU216HW,2013-02-13 03:12:00,
2013-02-12 22:17:00,41.4,22.5,29.89,SSE,158,1.1,2.2,47,0.00,,,0.00,WUHU216HW,2013-02-13 03:17:00,
2013-02-12 22:22:00,41.4,23.0,29.89,SSE,158,3.4,3.4,48,0.00,,,0.00,WUHU216HW,2013-02-13 03:22:00,
2013-02-12 22:27:00,41.2,22.9,29.89,SSE,158,0.0,3.4,48,0.00,,,0.00,WUHU216HW,2013-02-13 03:27:00,
2013-02-12 22:32:00,41.0,22.7,29.89,SSE,158,0.0,2.5,48,0.00,,,0.00,WUHU216HW,2013-02-13 03:32:00,
2013-02-12 22:37:00,40.7,22.4,29.89,SSE,158,0.0,0.0,48,0.00,,,0.00,WUHU216HW,2013-02-13 03:37:00,
2013-02-12 22:42:00,40.3,22.1,29.89,SW,225,0.0,1.1,48,0.00,,,0.00,WUHU216HW,2013-02-13 03:42:00,
2013-02-12 22:47:00,40.0,21.8,29.89,SW,225,0.0,1.1,48,0.00,,,0.00,WUHU216HW,2013-02-13 03:47:00,
2013-02-12 22:52:00,39.8,21.6,29.89,SW,225,0.0,0.0,48,0.00,,,0.00,WUHU216HW,2013-02-13 03:52:00,
2013-02-12 22:57:00,39.4,20.7,29.89,SW,225,0.0,0.0,47,0.00,,,0.00,WUHU216HW,2013-02-13 03:57:00,
2013-02-12 23:02:00,39.2,21.1,29.89,NNW,338,0.0,0.0,48,0.00,,,0.00,WUHU216HW,2013-02-13 04:02:00,
2013-02-12 23:07:00,38.9,22.7,29.89,NNW,338,0.4,0.9,52,0.00,,,0.00,WUHU216HW,2013-02-13 04:07:00,
2013-02-12 23:12:00,38.5,22.3,29.89,NW,315,0.7,0.9,52,0.00,,,0.00,WUHU216HW,2013-02-13 04:12:00,
2013-02-12 23:17:00,38.2,21.6,29.89,NW,315,0.0,0.7,51,0.00,,,0.00,WUHU216HW,2013-02-13 04:17:00,
2013-02-12 23:22:00,38.0,21.0,29.88,NNE,23,0.4,0.7,50,0.00,,,0.00,WUHU216HW,2013-02-13 04:22:00,
2013-02-12 23:27:00,37.6,21.5,29.89,WNW,293,0.0,0.7,52,0.00,,,0.00,WUHU216HW,2013-02-13 04:27:00,
2013-02-12 23:32:00,37.4,21.4,29.89,West,270,0.4,0.4,52,0.00,,,0.00,WUHU216HW,2013-02-13 04:32:00,
2013-02-12 23:38:00,37.3,21.3,29.89,South,180,2.2,2.2,52,0.00,,,0.00,WUHU216HW,2013-02-13 04:38:00,
2013-02-12 23:43:00,37.3,21.3,29.89,South,180,0.0,2.2,52,0.00,,,0.00,WUHU216HW,2013-02-13 04:43:00,
2013-02-12 23:48:00,37.1,22.0,29.88,South,180,0.2,1.3,54,0.00,,,0.00,WUHU216HW,2013-02-13 04:48:00,
2013-02-12 23:53:00,36.7,22.5,29.88,NNW,338,0.4,0.7,56,0.00,,,0.00,WUHU216HW,2013-02-13 04:53:00,
2013-02-12 23:58:00,36.4,23.4,29.88,NNW,338,0.4,0.4,59,0.00,,,0.00,WUHU216HW,2013-02-13 04:58:00,